Location: Wanzleben
(52.0609°N, 11.4408°E)
Time: 19:22:11
(UTC+00:00)

Okean 2 Rocket - Pass Details

Date: 18 September 2020
Orbit: 616 x 642 km, 82.5° (Epoch: 21 October)

Event Time Altitude Azimuth Distance (km) Brightness Sun altitude
Rises 18:04:23 0° 159° (SSE) 2,935 6.2 -7.4°
Reaches altitude 10° 18:06:50 10° 149° (SSE) 2,028 5.3 -7.8°
Maximum altitude 18:10:43 29° 89° (E) 1,167 3.9 -8.4°
Drops below altitude 10° 18:14:36 10° 29° (NNE) 2,030 5.6 -8.9°
Sets 18:17:03 0° 19° (NNE) 2,939 6.5 -9.3°
